Flag for Brazil Weather past 2 weeks in Salvador, Bahia, Brazil

Now
81 °F

Scattered clouds.


Feels Like: 85 °F
Forecast: 74 / 81 °F
Wind: 5 mph from South

Location: Salvador Aeroporto

Current Time: Jul 4, 2015 at 2:56:41 PM

Latest Report: Jul 4, 2015 at 2:00 PM


Visibility: N/A

Pressure: 29.98 "Hg

Humidity: 74%

Dew point: 72 °F

Location of SalvadorLocation

Historic Weather in Salvador — Graph

°F

Salvador temperature yesterday

Maximum temperature yesterday: 81 °F (at 12:00 PM)
Minimum temperature yesterday: 73 °F (at 6:00 AM)
Average temperature yesterday: 76 °F

Past Weeks' High & Low Weather Summary

 TemperatureHumidityPressure
High84 °F (Jun 20, 12:00 PM)100% (Jun 19, 4:00 PM)30.24 "Hg (Jun 19, 4:00 PM)
Low36 °F (Jun 28, 3:00 AM)48% (Jun 20, 12:00 PM)29.98 "Hg (Jul 4, 2:00 PM)
Average76 °F75%30.09 "Hg
* Reported Jun 19 2:00 PM — Jul 4 2:00 PM, Salvador, Weather by CustomWeather, © 2015

Note: Actual official high and low records may vary slightly from our data, if they occured in-between our weather recording intervals... More about our weather records

Advertising

Salvador weather history for previous 24 hours

 ConditionsComfort  
Time TempWeatherWind HumidityBarometerVisibility
2:00 PM
Sat, Jul 4
81 °FScattered clouds.5 mph74%29.98 "HgN/A
1:00 PM82 °FScattered clouds.6 mph66%30.01 "HgN/A
12:00 PM82 °FScattered clouds.5 mph70%30.04 "HgN/A
11:00 AM82 °FScattered clouds.3 mph70%30.04 "HgN/A
10:00 AM81 °FScattered clouds.7 mph70%30.07 "HgN/A
9:00 AM81 °FScattered clouds.2 mph70%30.07 "HgN/A
8:00 AM79 °FScattered clouds.5 mph74%30.07 "HgN/A
7:00 AM73 °FScattered clouds.3 mph89%30.04 "HgN/A
6:00 AM72 °FScattered clouds.2 mph88%30.01 "HgN/A
5:00 AM72 °FPassing clouds.3 mph94%30.01 "HgN/A
4:00 AM72 °FPassing clouds.2 mph88%30.01 "HgN/A
3:00 AM72 °FPassing clouds.2 mph94%30.01 "HgN/A
2:00 AM73 °FPassing clouds.3 mph89%30.01 "HgN/A
1:00 AM73 °FPassing clouds.2 mph89%30.04 "HgN/A
12:00 AM73 °FPassing clouds.2 mph89%30.04 "HgN/A
11:00 PM
Fri, Jul 3
73 °FPassing clouds.2 mph89%30.04 "HgN/A
10:00 PM75 °FPassing clouds.3 mph83%30.04 "HgN/A
9:00 PM73 °FPassing clouds.5 mph89%30.04 "HgN/A
8:00 PM75 °FPartly cloudy.2 mph83%30.04 "HgN/A
7:00 PM75 °FPartly cloudy.5 mph83%30.01 "HgN/A
6:00 PM75 °FPassing clouds.3 mph78%30.01 "HgN/A
5:00 PM77 °FBroken clouds.5 mph79%30.01 "HgN/A
4:00 PM79 °FBroken clouds.6 mph74%30.01 "HgN/A
3:00 PM77 °FScattered showers. Partly sunny.9 mph74%N/AN/A
2:00 PM81 °FScattered showers. Broken clouds.7 mph66%N/AN/A
Weather by CustomWeather, © 2015

See weather overviewHow to use our weather pages